TimeCST,TemperatureF,Dew PointF,Humidity,Sea Level PressureIn,VisibilityMPH,Wind Direction,Wind SpeedMPH,Gust SpeedMPH,PrecipitationIn,Events,Conditions,WindDirDegrees,DateUTC
12:15 AM,53.6,52.0,94,30.19,10.0,Calm,Calm,-,N/A,,Unknown,0,2013-03-09 06:15:00
12:35 AM,52.9,51.1,94,30.17,10.0,Calm,Calm,-,N/A,,Unknown,0,2013-03-09 06:35:00
12:55 AM,54.5,53.1,95,30.15,10.0,East,5.8,-,N/A,,Unknown,90,2013-03-09 06:55:00
1:15 AM,57.2,54.9,92,30.14,10.0,East,4.6,-,N/A,,Unknown,90,2013-03-09 07:15:00
1:35 AM,58.6,55.8,90,30.12,10.0,East,6.9,-,N/A,,Unknown,80,2013-03-09 07:35:00
1:55 AM,59.9,56.3,88,30.12,10.0,East,5.8,-,N/A,,Unknown,80,2013-03-09 07:55:00
2:15 AM,60.1,56.3,87,30.11,10.0,East,5.8,-,N/A,,Unknown,80,2013-03-09 08:15:00
2:35 AM,59.9,56.3,88,30.10,10.0,East,5.8,-,N/A,,Unknown,90,2013-03-09 08:35:00
2:55 AM,59.9,55.9,87,30.11,10.0,Calm,Calm,-,N/A,,Unknown,0,2013-03-09 08:55:00
3:15 AM,59.0,55.6,88,30.11,10.0,Calm,Calm,-,N/A,,Unknown,0,2013-03-09 09:15:00
3:35 AM,57.2,55.4,94,30.10,10.0,Calm,Calm,-,N/A,,Unknown,0,2013-03-09 09:35:00
3:55 AM,55.4,53.8,94,30.10,7.0,Calm,Calm,-,N/A,,Unknown,0,2013-03-09 09:55:00
4:15 AM,55.8,54.3,95,30.10,10.0,Calm,Calm,-,N/A,,Unknown,0,2013-03-09 10:15:00
4:35 AM,54.0,52.7,95,30.10,7.0,NE,3.5,-,N/A,,Unknown,50,2013-03-09 10:35:00
4:55 AM,55.6,54.9,97,30.10,7.0,NE,3.5,-,N/A,,Unknown,50,2013-03-09 10:55:00
5:15 AM,55.6,54.5,96,30.11,7.0,Calm,Calm,-,N/A,,Unknown,0,2013-03-09 11:15:00
5:35 AM,57.0,56.1,97,30.11,10.0,ENE,3.5,-,N/A,,Unknown,60,2013-03-09 11:35:00
5:55 AM,58.5,57.4,96,30.13,10.0,Calm,Calm,-,N/A,,Unknown,0,2013-03-09 11:55:00
6:15 AM,56.1,54.7,95,30.13,7.0,NE,3.5,-,N/A,,Unknown,50,2013-03-09 12:15:00
6:35 AM,58.1,57.2,97,30.13,7.0,NNE,4.6,-,N/A,,Unknown,30,2013-03-09 12:35:00
6:55 AM,58.5,57.4,96,30.14,7.0,NE,3.5,-,N/A,,Unknown,40,2013-03-09 12:55:00
7:15 AM,59.0,57.4,94,30.15,7.0,NNE,4.6,-,N/A,,Unknown,30,2013-03-09 13:15:00
7:35 AM,59.4,57.4,93,30.15,10.0,NE,6.9,-,N/A,,Unknown,50,2013-03-09 13:35:00
7:55 AM,60.4,57.6,90,30.16,10.0,NE,5.8,-,N/A,,Unknown,50,2013-03-09 13:55:00
8:15 AM,61.9,57.9,87,30.15,10.0,ENE,6.9,-,N/A,,Unknown,60,2013-03-09 14:15:00
8:35 AM,63.7,58.3,83,30.16,10.0,ENE,10.4,-,N/A,,Unknown,60,2013-03-09 14:35:00
8:55 AM,65.3,58.1,77,30.16,10.0,ENE,9.2,-,N/A,,Unknown,60,2013-03-09 14:55:00
9:15 AM,66.2,59.2,78,30.17,10.0,NE,9.2,-,N/A,,Unknown,50,2013-03-09 15:15:00
9:35 AM,67.6,59.2,74,30.17,10.0,ENE,9.2,-,N/A,,Unknown,60,2013-03-09 15:35:00
9:55 AM,68.9,59.7,72,30.16,10.0,ENE,9.2,-,N/A,,Unknown,70,2013-03-09 15:55:00
10:15 AM,70.5,60.1,69,30.17,10.0,East,9.2,-,N/A,,Unknown,90,2013-03-09 16:15:00
10:35 AM,71.1,59.9,68,30.16,10.0,East,9.2,16.1,N/A,,Unknown,80,2013-03-09 16:35:00
10:55 AM,71.6,59.9,66,30.16,10.0,ENE,10.4,-,N/A,,Unknown,60,2013-03-09 16:55:00
11:15 AM,71.2,60.1,68,30.15,10.0,East,10.4,-,N/A,,Unknown,80,2013-03-09 17:15:00
11:35 AM,70.7,59.9,69,30.15,10.0,ENE,9.2,-,N/A,,Unknown,70,2013-03-09 17:35:00
11:55 AM,70.2,60.4,71,30.14,10.0,East,10.4,-,N/A,,Unknown,80,2013-03-09 17:55:00
12:15 PM,70.9,60.6,70,30.14,10.0,ENE,12.7,-,N/A,,Unknown,70,2013-03-09 18:15:00
12:35 PM,70.7,60.4,70,30.13,10.0,ENE,11.5,-,N/A,,Unknown,70,2013-03-09 18:35:00
12:55 PM,70.7,61.0,71,30.11,10.0,East,12.7,16.1,N/A,,Unknown,90,2013-03-09 18:55:00
1:15 PM,70.7,61.0,71,30.10,10.0,East,13.8,-,N/A,,Unknown,80,2013-03-09 19:15:00
1:35 PM,71.2,60.8,69,30.09,10.0,East,12.7,-,N/A,,Unknown,80,2013-03-09 19:35:00
1:55 PM,71.4,61.2,70,30.09,10.0,East,8.1,-,N/A,,Unknown,80,2013-03-09 19:55:00
2:15 PM,70.7,60.8,71,30.08,10.0,ENE,11.5,-,N/A,,Unknown,70,2013-03-09 20:15:00
2:35 PM,70.9,60.6,70,30.07,10.0,East,13.8,20.7,N/A,,Unknown,80,2013-03-09 20:35:00
2:55 PM,70.9,61.0,71,30.08,10.0,East,9.2,17.3,N/A,,Unknown,80,2013-03-09 20:55:00
3:15 PM,71.4,61.2,70,30.07,10.0,East,12.7,19.6,N/A,,Unknown,80,2013-03-09 21:15:00
3:35 PM,72.5,61.2,67,30.07,10.0,East,12.7,17.3,N/A,,Unknown,90,2013-03-09 21:35:00
3:55 PM,71.6,61.2,70,30.07,10.0,East,15.0,21.9,N/A,,Unknown,80,2013-03-09 21:55:00
4:15 PM,70.3,61.3,73,30.05,10.0,East,15.0,20.7,N/A,,Unknown,80,2013-03-09 22:15:00
4:35 PM,69.8,61.5,75,30.04,10.0,East,13.8,18.4,N/A,,Unknown,80,2013-03-09 22:35:00
4:55 PM,69.8,61.3,74,30.04,10.0,East,13.8,20.7,N/A,,Unknown,80,2013-03-09 22:55:00
5:15 PM,69.3,61.3,76,30.04,10.0,East,12.7,19.6,N/A,,Unknown,90,2013-03-09 23:15:00
5:35 PM,68.5,61.7,79,30.03,10.0,East,12.7,17.3,N/A,,Unknown,80,2013-03-09 23:35:00
5:55 PM,68.4,61.7,79,30.03,10.0,East,12.7,21.9,N/A,,Unknown,90,2013-03-09 23:55:00
6:15 PM,68.0,61.9,81,30.02,10.0,East,11.5,18.4,N/A,,Unknown,90,2013-03-10 00:15:00
6:35 PM,67.5,62.1,83,30.02,10.0,East,12.7,19.6,N/A,,Unknown,90,2013-03-10 00:35:00
6:55 PM,67.3,62.6,85,30.01,10.0,East,8.1,16.1,N/A,,Unknown,90,2013-03-10 00:55:00
7:15 PM,67.3,62.6,85,30.01,10.0,East,10.4,16.1,N/A,,Unknown,90,2013-03-10 01:15:00
7:35 PM,67.3,62.6,85,30.01,10.0,East,11.5,16.1,N/A,,Unknown,100,2013-03-10 01:35:00
7:55 PM,67.5,62.6,84,30.00,10.0,East,10.4,16.1,N/A,,Unknown,100,2013-03-10 01:55:00
8:15 PM,67.1,62.8,86,30.01,10.0,ESE,9.2,16.1,N/A,,Unknown,110,2013-03-10 02:15:00
8:35 PM,67.5,63.0,85,30.00,10.0,East,9.2,-,N/A,,Unknown,100,2013-03-10 02:35:00
9:15 PM,67.5,63.0,85,30.01,10.0,East,8.1,16.1,N/A,,Unknown,100,2013-03-10 03:15:00
9:35 PM,67.6,62.6,84,29.99,10.0,East,10.4,-,N/A,,Unknown,100,2013-03-10 03:35:00
9:55 PM,67.5,62.4,84,29.99,10.0,ESE,11.5,-,N/A,,Unknown,110,2013-03-10 03:55:00
10:15 PM,67.3,62.4,84,29.98,10.0,ESE,11.5,16.1,N/A,,Unknown,110,2013-03-10 04:15:00
10:35 PM,67.5,62.6,84,29.98,10.0,ESE,11.5,17.3,N/A,,Unknown,110,2013-03-10 04:35:00
10:55 PM,67.3,62.6,85,29.97,10.0,ESE,12.7,16.1,N/A,,Unknown,110,2013-03-10 04:55:00
11:15 PM,67.3,62.6,85,29.96,10.0,East,11.5,-,N/A,,Unknown,100,2013-03-10 05:15:00
11:35 PM,67.5,62.6,84,29.96,10.0,ESE,9.2,-,N/A,,Unknown,110,2013-03-10 05:35:00
11:55 PM,67.5,63.0,85,29.94,10.0,ESE,10.4,18.4,N/A,,Unknown,110,2013-03-10 05:55:00